Weather Roundup
Issued by NWS Springfield, MO

Home | Current Version | Previous Version | Text Only | Print | Product List | Glossary On
Versions: 1 2 3 4 5 6 7 8 9 10 11 12 13 14 15 16 17 18 19 20 21 22 23 24 25 26 27 28 29 30 31 32 33 34 35 36 37 38 39 40 41 42 43 44 45 46 47 48 49 50
000
NZUS99 KSGF 230907
HRRSGF

HOURLY WEATHER
NATIONAL WEATHER SERVICE SPRINGFIELD MO
400 AM CDT FRI JUN 23 2017

......SGF CWA......

CITY           SKY/WX    TMP DP  RH WIND       PRES   REMARKS
SPRINGFIELD    MOCLDY    73  72  96 S3        29.72F
JOPLIN         CLEAR     74  72  93 S3        29.71F
WEST PLAINS    CLOUDY    74  73  97 NE5       29.72F
ROLLA          CLOUDY    73  72  96 S7        29.72F
OSAGE BEACH    MOCLDY    73  72  96 SE8       29.71F
BRANSON          N/A     72  72 100 N5        29.73F FOG

......SURROUNDING SGF CWA......

CITY           SKY/WX    TMP DP  RH WIND       PRES   REMARKS
CHANUTE        PTCLDY    73  71  93 SE6       29.69F
PARSONS        PTCLDY    70  69  97 CALM      29.71F
COFFEYVILLE    PTCLDY    72  72 100 CALM      29.69F
EMPORIA        MOCLDY    74  72  93 S7        29.68S
GROVE OK       CLEAR     72  72 100 CALM      29.71F
ROGERS AR      CLEAR     71  70  96 E3        29.73F
SILOAM SPRINGS CLEAR     70  66  88 SE3       29.71F
HARRISON AR    CLOUDY    71  71 100 NW5       29.72F
NEAR YELLVILLE CLOUDY    75  70  83 NW5       29.65F

......KANSAS AND MISSOURI......

CITY           SKY/WX    TMP DP  RH WIND       PRES   REMARKS
KANSAS CTY INT CLOUDY    75  73  93 NW3       29.70R
DOWNTOWN KC    MOCLDY    80  73  79 CALM      29.68S
COLUMBIA       CLOUDY    74  73  97 S7        29.69F
SEDALIA        CLEAR     75  74  96 S9        29.69F
ST JOSEPH      CLOUDY    73  71  93 N17       29.76R
ST LOUIS       MOCLDY    79  72  79 SW9       29.71F
SPIRIT OF STL  CLOUDY    76  74  93 S6        29.69F
KIRKSVILLE     HVY RAIN  69  67  93 N20G29    29.75R FOG
WICHITA        CLOUDY    76  65  68 NW12      29.74R
TOPEKA         CLOUDY    76  74  93 N9        29.70R
OLATHE         PTCLDY    74  73  97 CALM      29.68F

......TENNESSEE......

CITY           SKY/WX    TMP DP  RH WIND       PRES   REMARKS
MEMPHIS        CLOUDY    79  73  82 S16G24    29.69F
NASHVILLE      MOCLDY    77  72  84 S8        29.85S

......ARKANSAS.......

CITY           SKY/WX    TMP DP  RH WIND       PRES   REMARKS
FAYETTEVILLE   PTCLDY    68  68 100 S5        29.73F
FT SMITH       CLEAR     74  73  97 W3        29.69F
LITTLE ROCK    LGT RAIN  75  75 100 NW7       29.60S FOG

......OKLAHOMA.......

CITY           SKY/WX    TMP DP  RH WIND       PRES   REMARKS
TULSA          CLEAR     77  74  90 S6        29.67F
PONCA CITY     CLOUDY    76  70  82 S3        29.70F
MCALESTER      MOCLDY    74  72  93 SW3       29.71F
OKLAHOMA CITY  PTCLDY    71  69  93 SW5       29.72F

......IOWA............

CITY           SKY/WX    TMP DP  RH WIND       PRES   REMARKS
DES MOINES     CLOUDY    68  64  87 N10G22    29.74S
QUAD CITIES    TSTM      75  72  90 VRB7      29.66R VSB 1/2

......ILLINOIS........

CITY           SKY/WX    TMP DP  RH WIND       PRES   REMARKS
QUINCY         CLOUDY    75  72  90 SW7       29.68S
CHICAGO        CLOUDY    77  71  82 SW13      29.64S




USA.gov is the U.S. government's official web portal to all federal, state and local government web resources and services.